GFSMA_con_lsi_057.txt.gz
Lid_Strength_Index
-0 -1 -1 -1 -1 -1 -1 -1 -1 -1 -1 -1 -1 -1 -1 -1 -1 -1 -1 -1 -1 -1 -1 -1 -2 -2 -2 -2 -2 -2 -2 -1 -1 -1 -2 -2 -2 -2 -2 -2 -2 -2 -2
-0 -0 -0 -0 -0 -1 -1 -1 -1 -1 -0 -1 -1 -1 -1 -1 -1 -2 -1 -2 -2 -1 -1 -1 -2 -2 -2 -2 -2 -2 -2 -1 -1 -1 -2 -2 -2 -2 -2 -2 -2 -2 -2
-1 -1 -0 -0 -1 -1 -1 -1 -1 -1 -0 -0 -0 0 -0 -1 -1 -1 -1 -2 -2 -2 -1 -1 -2 -2 -2 -2 -2 -2 -2 -2 -2 -2 -2 -2 -1 -2 -2 -2 -2 -2 -1
-1 -0 0 -0 -1 -1 -1 -0 -0 1 1 1 1 1 0 -1 -1 -1 -1 -1 -1 -1 -1 -2 -2 -2 -2 -2 -2 -2 -2 -2 -2 -2 -2 -1 -1 -1 -2 -2 -2 -2 -2
-1 -0 0 -0 -1 -0 0 0 1 1 1 2 2 1 0 -0 -0 -1 -1 -1 -1 -1 -1 -1 -1 -1 -2 -2 -2 -2 -2 -2 -2 -2 -2 -1 -1 -1 -1 -2 -2 -2 -2
-0 -0 -0 -0 -0 -0 0 0 1 1 1 2 2 1 0 -0 -0 -0 -0 -1 -1 -1 -1 -1 -1 -1 -2 -2 -2 -2 -2 -2 -2 -2 -1 -1 -1 -1 -1 -1 -1 -2 -2
-1 -0 -0 0 0 0 0 -0 0 1 1 1 2 2 1 0 0 -0 -0 -0 -0 -1 -1 -1 -1 -1 -1 -1 -1 -2 -2 -2 -2 -2 -1 -1 -1 -1 -1 -1 -1 -1 -2
-0 -0 0 0 -0 0 0 0 0 1 1 1 2 2 4 3 1 0 0 0 -0 -0 -1 -1 -1 -1 -1 -1 -2 -1 -2 -2 -2 -2 -1 -1 -1 -1 -1 -1 -1 -1 -1
-0 -0 -0 0 0 0 1 0 0 1 2 1 1 2 5 6 3 1 1 0 0 0 -0 -1 -1 -1 -1 -1 -1 -1 -1 -1 -1 -2 -1 -1 -1 -1 -1 -1 -1 -1 -1
0 -0 -0 -0 0 0 0 0 0 1 1 2 2 1 1 2 4 5 2 1 0 0 -0 -0 -1 -1 -1 -1 -1 -1 -1 -1 -1 -2 -2 -1 -1 -1 -1 -1 -1 -1 -1
0 -0 -0 0 0 0 0 0 0 1 1 2 2 2 2 2 2 4 5 3 1 0 -0 -0 -1 -1 -1 -1 -1 -1 -1 -1 -1 -1 -1 -1 -1 -2 -1 -1 -1 -1 -1
1 0 0 -0 -0 0 0 0 0 0 1 1 1 1 2 3 3 3 4 3 3 1 0 -0 -0 -1 -1 -1 -1 -1 0 -0 0 -0 -0 -1 -1 -2 -1 -1 -1 -1 -1
1 1 0 0 0 0 -0 0 0 0 1 1 1 1 1 2 1 2 3 3 3 2 1 -0 -1 -1 -2 -1 -1 -1 -1 0 1 1 1 1 -0 -1 -1 -1 -1 -1 -1
1 0 0 0 0 0 0 0 0 0 0 1 1 1 1 1 1 1 2 3 4 3 2 2 -1 -1 -2 -2 -1 -1 -1 0 1 2 2 2 1 0 0 0 -0 -0 -0
0 0 0 0 0 0 0 0 1 1 0 1 1 1 1 1 1 1 1 1 3 5 4 2 2 -0 -1 -1 -1 -2 -1 1 1 2 2 2 2 2 2 1 1 1 0
0 0 0 0 0 0 0 0 1 0 1 1 1 1 1 1 1 1 1 1 1 2 4 1 1 0 -0 -1 -1 -1 -1 0 1 2 2 2 3 3 2 2 2 1 1
1 1 1 1 1 1 0 1 1 1 1 1 1 1 1 0 1 1 1 1 1 1 3 2 1 0 0 0 -0 -1 -1 -1 -1 2 2 2 4 4 4 3 2 2 2
0 0 1 1 1 1 1 1 1 1 2 2 1 1 1 1 1 0 1 1 1 1 2 3 2 1 1 -0 -0 0 -0 -1 -1 2 2 4 5 5 4 4 3 3 3
1 1 1 1 1 1 1 1 1 1 1 1 1 1 1 1 1 1 1 1 1 1 1 2 2 1 1 0 1 0 0 -0 -1 2 3 4 5 5 4 4 4 4 4
1 1 1 1 1 1 1 1 1 1 1 1 1 0 1 1 1 1 1 1 1 1 2 2 2 2 2 1 1 2 2 0 1 1 2 3 4 5 5 5 4 4 5
1 1 1 1 1 1 1 1 1 1 1 1 1 0 0 1 2 1 1 1 1 2 2 2 3 3 3 3 3 2 2 1 1 0 1 1 1 1 3 4 2 3 5
1 1 1 1 1 1 9 7 2 1 1 1 1 1 0 2 3 5 4 4 2 2 2 2 3 3 3 2 2 2 2 3 4 0 1 2 1 2 2 1 4 5 6
1 2 1 1 1 1 10 9 6 1 1 1 1 1 1 0 1 0 5 5 5 5 3 1 2 2 3 2 1 2 2 2 2 1 1 2 1 2 1 2 6 7 7
2 2 1 1 1 5 11 11 7 0 1 1 0 0 1 1 1 1 1 1 1 0 0 0 0 0 0 0 1 1 1 1 1 1 -0 3 1 3 1 1 7 7 7
2 2 1 2 4 6 11 10 3 1 1 1 0 0 0 1 7 7 1 2 2 1 6 6 5 6 7 6 3 0 2 2 3 2 1 1 1 2 1 1 1 6 7
2 4 3 1 5 3 12 10 3 1 2 2 1 0 7 2 10 9 1 2 3 2 1 1 1 4 3 3 6 -0 0 2 3 3 1 2 2 1 3 1 -0 -0 -0

GFSMA_con_lsi_060.txt.gz
Lid_Strength_Index
-1 -1 -1 -1 -1 -1 -1 -1 -1 -1 -1 -1 -1 -1 -1 -1 -2 -1 -2 -3 -2 -1 -1 -1 -1 -1 -2 -2 -2 -2 -2 -1 -1 -1 -1 -2 -2 -2 -2 -2 -2 -2 -2
-1 -1 -1 -1 -1 -1 -1 -1 -1 -1 -1 -1 -1 -1 -1 -1 -1 -2 -2 -2 -3 -2 -1 -1 -1 -1 -2 -2 -2 -2 -2 -1 -1 -1 -1 -2 -2 -2 -2 -2 -2 -2 -2
-1 -1 -1 -1 -1 -2 -2 -2 -1 -1 -1 -1 -1 -1 -1 -1 -1 -1 -2 -2 -2 -3 -2 -1 -1 -2 -2 -2 -2 -2 -2 -2 -1 -1 -1 -2 -1 -1 -2 -2 -2 -2 -2
-2 -1 -0 -0 -1 -2 -1 -1 -1 -0 -0 -0 -0 -0 -1 -1 -1 -1 -1 -1 -2 -2 -2 -2 -1 -2 -2 -2 -2 -2 -2 -2 -2 -1 -1 -1 -1 -1 -1 -2 -2 -2 -2
-1 -1 -0 -1 -2 -1 -1 -0 -0 -0 0 0 0 -0 -0 -0 -1 -1 -1 -1 -2 -2 -1 -1 -2 -2 -2 -2 -2 -2 -2 -2 -2 -2 -1 -1 -1 -1 -1 -1 -2 -2 -2
-1 -1 -0 -0 -1 -0 -0 0 0 -0 0 0 1 0 -0 -0 -0 -0 -0 -1 -1 -1 -2 -2 -2 -1 -2 -2 -2 -2 -2 -2 -2 -2 -1 -1 -1 -1 -1 -1 -1 -1 -2
-1 -0 -0 -0 -0 -0 0 0 0 1 1 0 1 1 1 -0 -0 -0 -0 -1 -1 -1 -1 -2 -2 -1 -1 -2 -2 -2 -2 -2 -2 -2 -2 -1 -1 -1 -1 -1 -1 -1 -1
-1 -0 -1 -0 -0 1 -0 0 0 1 1 0 2 2 4 2 1 0 -0 -0 -1 -1 -1 -1 -1 -2 -2 -1 -2 -2 -2 -2 -2 -2 -1 -1 -1 -1 -1 -1 -1 -1 -1
-0 -0 -1 -0 -0 -0 0 0 0 1 2 1 0 2 4 5 2 1 1 0 -0 -0 -0 -1 -1 -1 -2 -2 -1 -2 -2 -1 -1 -2 -1 -1 -1 -1 -1 -1 -1 -1 -1
-0 -1 -1 -0 -0 -0 0 0 0 1 1 2 1 1 1 1 4 4 1 1 0 0 -0 -0 -1 -1 -2 -1 -2 -1 -1 -1 -1 -1 -1 -2 -1 -1 -1 -1 -1 -1 -1
-0 -0 -0 -0 -0 0 -0 0 0 1 1 1 2 2 2 2 1 3 5 3 1 0 -0 -0 -1 -1 -1 -2 -2 -1 -0 -1 -1 -1 -1 -1 -1 -1 -1 -1 -1 -1 -1
0 0 -0 -0 -0 -0 0 0 -0 0 1 1 1 1 2 3 3 3 4 3 3 2 0 -0 -0 -1 -1 -1 -2 -1 -0 -0 -0 -0 -1 -1 -1 -1 -1 -1 -1 -1 -1
1 0 0 0 0 -0 -0 -0 0 0 0 1 1 1 1 1 1 2 3 4 4 1 1 0 -0 -1 -1 -1 -1 -0 -1 -0 0 1 0 0 -0 -1 -1 -1 -1 -1 -1
1 -0 0 -0 -0 -0 -0 -0 0 0 0 1 1 1 1 1 1 1 2 3 4 3 2 1 -1 -1 -1 -1 -1 -0 -1 -0 1 1 1 1 1 0 -0 -0 -0 -0 -0
0 0 0 0 -0 -0 -0 0 1 1 0 0 1 1 1 1 1 1 1 2 3 5 5 2 2 -1 -1 -2 -1 -1 -2 1 -0 1 1 2 1 1 1 1 1 1 1
-0 0 0 0 0 0 0 -0 0 0 1 1 1 1 1 1 1 0 1 1 1 2 4 1 1 -0 -1 -1 -1 -1 -1 0 0 1 2 2 2 2 2 2 2 2 1
0 0 0 0 0 0 0 0 0 0 1 1 0 1 1 0 1 1 0 0 1 1 3 1 0 -0 -0 0 -0 -1 -1 -2 -1 2 2 2 3 3 3 3 3 2 2
0 0 0 0 1 0 0 1 1 1 1 1 1 1 1 1 1 0 1 0 1 0 2 3 1 1 0 -0 -0 -1 -0 -2 -1 1 2 3 4 4 5 4 4 3 3
0 0 0 1 1 1 1 0 1 1 1 1 1 1 1 1 1 1 1 1 1 1 1 2 2 1 1 -0 1 -0 -0 -0 -1 1 3 4 5 5 5 5 4 4 4
0 0 0 1 0 0 1 1 1 1 0 1 0 0 0 1 1 1 1 1 0 1 1 2 2 2 1 1 1 2 2 0 1 -1 1 2 4 5 5 4 4 4 5
0 0 1 0 0 1 1 1 1 1 1 1 0 0 0 1 2 1 1 0 1 1 2 2 3 2 3 3 3 2 2 1 1 0 0 -0 0 0 2 4 2 3 5
1 1 1 1 1 1 9 8 2 1 1 1 1 0 0 2 2 5 5 5 1 1 2 3 2 3 3 2 2 2 2 3 3 -0 1 1 -0 0 1 -0 4 5 6
1 1 1 1 1 1 10 9 7 1 1 1 1 1 1 0 1 0 5 5 4 5 4 1 2 2 2 1 1 2 2 2 2 1 1 2 1 1 1 1 6 7 7
1 2 1 1 2 1 10 10 7 0 0 0 0 0 0 1 0 1 1 1 0 1 1 -0 0 0 0 -0 0 0 1 1 0 0 -0 3 1 1 0 1 6 7 7
2 2 2 2 1 3 12 10 4 1 1 1 0 0 1 1 7 7 1 1 2 1 5 7 7 7 7 6 2 1 2 2 3 2 0 1 1 2 1 1 1 6 6
2 2 2 1 4 2 12 10 4 1 1 1 1 1 7 2 10 9 1 2 3 2 1 0 0 3 3 3 6 0 1 2 3 3 0 2 2 2 3 0 1 2 2

GFSMA_con_lsi_063.txt.gz
Lid_Strength_Index
-1 -1 -1 -1 -1 -1 -1 -1 -1 -1 -1 -1 -1 -1 -1 -1 -1 -1 -1 -3 -2 -2 -1 -1 -1 -1 -1 -2 -2 -2 -2 -2 -1 -1 -1 -1 -1 -2 -2 -2 -2 -2 -1
-1 -0 -1 -1 -1 -1 -1 -1 -1 -1 -1 -1 -1 -1 -1 -1 -1 -2 -1 -2 -3 -3 -2 -2 -1 -1 -1 -2 -2 -2 -2 -2 -1 -1 -1 -1 -1 -1 -2 -2 -2 -2 -1
-1 -1 -0 -0 -1 -2 -2 -2 -1 -1 -0 -1 -0 -1 -1 -1 -1 -1 -1 -1 -1 -2 -2 -2 -1 -1 -1 -2 -2 -2 -2 -2 -1 -1 -1 -1 -1 -1 -1 -2 -2 -2 -1
-1 -1 -0 -0 -1 -1 -1 -1 -0 0 -0 0 0 -0 -0 -1 -1 -1 -1 -1 -1 -1 -1 -1 -2 -1 -2 -2 -2 -2 -2 -2 -2 -1 -1 -1 -1 -1 -1 -1 -1 -1 -2
-1 -0 -0 -1 -2 -1 -0 -0 -0 -0 0 0 0 -0 -0 -0 -0 -0 -1 -1 -1 -1 -1 -1 -1 -1 -1 -2 -2 -2 -2 -2 -2 -1 -1 -1 -1 -1 -1 -1 -1 -1 -2
-1 -0 -1 -1 -1 -0 -0 -0 -0 -0 0 1 1 1 0 -0 -0 -0 -0 -1 -1 -1 -2 -2 -1 -1 -1 -2 -2 -2 -2 -2 -2 -2 -1 -1 -1 -1 -1 -1 -1 -1 -2
-0 -0 -0 -0 -0 -0 0 -0 0 1 1 0 1 1 1 0 0 0 -0 -0 -0 -1 -1 -1 -1 -1 -1 -1 -1 -2 -2 -2 -2 -2 -1 -1 -1 -1 -1 -1 -1 -1 -1
-1 -0 -0 0 -0 0 0 1 1 1 1 0 2 2 4 2 1 1 0 0 -0 -0 -0 -0 -1 -1 -0 -1 -1 -1 -2 -2 -2 -2 -1 -1 -1 -1 -1 -1 -1 -1 -1
-0 -0 -0 -0 0 0 1 1 1 1 2 1 1 2 4 5 3 1 1 0 0 0 -0 -1 -1 -1 -1 -1 -1 -2 -1 -1 -1 -2 -1 -1 -1 -1 -1 -1 -1 -1 -1
-0 -0 -0 0 0 0 0 0 0 1 1 2 1 1 1 2 4 4 2 1 0 1 -0 -0 0 -0 -2 -2 -2 -2 -1 -1 -1 -1 -1 -1 -1 -1 -1 -1 -1 -1 -1
-0 0 0 0 1 0 0 0 0 1 1 2 2 2 2 2 2 4 5 3 1 1 0 -0 -0 -0 -1 -1 -1 -1 -0 -0 -1 -1 -1 -1 -1 -1 -1 -1 -1 -1 -1
0 0 0 -0 -0 0 0 0 0 1 1 1 1 1 2 3 3 3 4 3 3 1 0 0 0 0 -1 -1 -2 -1 -1 -0 0 -0 -1 -1 -1 -1 -1 -1 -1 -1 -1
1 1 0 0 1 0 0 0 0 0 1 1 1 1 1 1 1 2 3 3 3 2 2 1 0 -0 -0 -1 -1 -1 -0 -0 0 1 0 -0 -0 -1 -1 -1 -1 -1 -1
1 -1 0 0 0 0 0 0 1 1 0 1 1 1 1 1 1 1 2 3 4 3 2 1 0 -0 -0 -1 -1 -0 -1 1 0 1 1 1 0 0 -0 -0 -0 -0 -0
0 0 -0 0 0 0 0 0 1 1 1 1 1 1 1 1 1 1 1 1 3 5 4 2 2 -1 -1 -1 -1 -1 -1 2 -0 1 1 1 1 1 1 1 1 1 1
0 0 0 0 0 0 0 0 1 1 1 1 1 1 1 1 1 1 1 1 1 3 5 2 1 -0 -1 -1 -1 -1 -1 1 -0 0 1 1 2 2 2 2 2 2 2
0 1 0 0 1 1 1 1 1 1 1 1 1 1 1 0 1 1 1 1 2 2 3 2 1 0 -0 -0 -1 -1 -1 -1 -1 2 2 2 3 2 3 3 3 3 2
0 1 1 1 1 1 1 1 1 1 1 1 1 1 1 1 1 0 1 1 1 0 3 3 1 1 1 -0 -0 -0 -0 -1 -1 1 2 3 4 4 4 5 4 4 3
0 0 0 1 1 1 1 1 1 1 1 1 1 1 1 1 1 1 1 1 1 1 1 2 2 1 1 0 0 -0 -0 -0 -1 1 3 4 4 5 5 5 5 5 5
1 0 1 1 1 1 1 1 1 1 1 1 1 1 1 1 1 1 1 1 1 1 1 2 2 2 2 1 0 2 2 0 1 -1 1 2 4 5 6 5 4 4 5
0 0 1 1 1 1 1 1 1 1 1 1 1 1 0 1 2 1 1 1 1 2 2 2 3 2 2 2 2 2 2 1 1 0 0 0 -0 0 3 4 2 3 5
1 1 1 1 1 1 7 7 2 1 1 1 2 1 0 2 3 5 4 4 2 1 2 2 2 3 3 2 1 2 2 3 4 -0 1 1 -0 1 0 -0 3 5 6
1 1 1 1 1 1 10 10 7 1 1 1 1 1 1 1 1 0 5 5 5 5 4 0 2 3 2 1 1 2 2 2 2 1 1 2 0 1 -0 2 6 6 7
1 1 1 1 1 1 12 10 8 1 1 1 0 0 1 0 1 1 1 1 1 0 0 -0 1 1 0 0 0 1 1 1 1 1 -0 3 1 2 0 0 7 7 7
1 2 1 1 1 3 12 10 5 1 1 1 0 0 0 1 6 7 1 1 1 1 5 6 6 7 7 6 2 1 2 3 3 2 0 1 1 2 1 1 2 6 7
2 1 2 1 4 1 12 10 5 1 1 1 1 1 8 3 10 9 1 1 2 2 1 1 0 3 2 3 5 -0 1 3 3 3 1 2 2 2 3 0 0 2 4

GFSMA_con_lsi_069.txt.gz
Lid_Strength_Index
0 0 1 1 0 0 1 1 1 1 0 1 1 1 1 1 1 1 0 -2 -2 -2 -2 -2 -2 -2 -1 -1 -1 -1 -1 -1 -2 -2 -1 -1 -1 -2 -2 -2 -2 -2 -2
0 0 1 0 0 1 1 1 1 1 1 1 1 0 1 1 1 1 0 -0 -1 -1 -2 -2 -2 -2 -2 -1 -1 -1 -1 -1 -2 -2 -1 -1 -1 -1 -1 -2 -2 -2 -2
1 0 0 0 1 1 1 1 1 1 1 1 2 1 0 1 1 1 1 0 -0 -1 -1 -2 -1 -2 -2 -1 -1 -1 -1 -1 -2 -2 -1 -1 -1 -1 -1 -2 -2 -2 -1
0 0 0 1 1 0 1 1 2 2 2 2 2 1 1 1 1 1 1 1 1 0 -1 -1 -1 -2 -2 -2 -1 -1 -1 -1 -1 -2 -1 -1 -1 -1 -1 -1 -2 -2 -1
-0 0 1 1 1 1 1 1 2 1 2 2 1 1 1 1 1 1 1 1 1 1 1 -0 -1 -1 -1 -2 -1 -2 -2 -1 -1 -1 -2 -2 -1 -1 -1 -1 -1 -1 -2
0 0 1 1 1 1 2 1 1 1 2 2 1 1 2 1 2 2 1 1 1 1 1 1 0 -0 -1 -1 -1 -2 -2 -1 -2 -2 -1 -1 -1 -1 -1 -1 -1 -1 -1
0 0 1 1 1 1 2 2 1 2 2 1 3 2 2 1 1 2 1 1 0 0 1 1 1 0 -0 -1 -1 -1 -2 -2 -2 -2 -1 -1 -1 -1 -1 -1 -1 -1 -1
0 1 0 1 1 2 2 2 2 2 2 1 3 4 6 4 2 1 2 1 1 1 1 1 0 0 -0 0 0 -1 -1 -2 -2 -2 -1 -1 -1 -1 -1 -1 -1 -1 -1
0 0 1 0 2 1 1 1 2 2 3 2 2 3 6 6 4 2 2 2 2 1 2 1 0 0 -0 0 -0 -1 -1 -1 -2 -2 -1 -1 -1 -2 -1 -1 -1 -1 -1
0 0 0 0 1 1 1 1 1 1 2 3 2 1 3 3 6 6 3 2 2 2 2 2 1 0 0 1 0 -0 -0 -1 -1 -1 -1 -1 -2 -2 -2 -1 -1 -1 -1
1 0 0 0 1 1 1 1 1 1 1 3 3 3 4 3 3 4 6 4 3 2 2 2 2 1 1 1 1 0 0 0 -0 -1 -1 -1 -1 -2 -2 -2 -1 -1 -1
1 1 0 1 0 1 1 1 1 1 1 1 2 3 4 5 4 4 5 4 5 3 2 1 2 1 1 1 -0 0 1 1 1 1 0 -0 -1 -1 -2 -1 -1 -1 -1
1 1 1 1 1 1 1 1 1 1 1 1 2 2 3 4 3 3 3 4 5 4 3 2 2 2 2 1 1 0 -0 1 2 2 1 1 0 -1 -1 -1 -1 -1 -1
1 1 1 3 3 0 1 0 1 1 1 1 1 1 2 2 1 2 3 4 5 5 4 4 2 2 1 1 1 -0 0 1 2 2 2 1 1 0 0 0 -0 -1 -0
1 1 1 2 1 1 1 1 1 1 1 1 1 1 2 1 2 2 2 3 5 7 6 4 4 2 2 2 1 1 1 1 2 2 3 1 2 1 1 1 1 1 1
1 1 1 1 1 1 1 1 1 1 1 1 2 2 2 3 3 3 3 4 4 5 6 4 3 3 2 1 1 1 1 1 2 2 2 2 2 2 2 2 2 2 1
1 1 1 1 1 1 1 1 1 1 2 2 1 2 2 3 3 3 3 4 4 4 5 4 3 2 3 2 2 1 1 1 2 2 1 2 3 2 2 2 3 2 2
1 1 1 1 1 1 1 1 2 1 2 2 2 2 3 2 3 3 3 4 4 3 4 5 4 3 3 3 2 2 1 0 1 3 2 3 4 4 4 4 4 4 4
1 2 1 1 1 1 1 1 1 2 2 2 2 3 3 2 2 3 3 4 3 3 3 4 4 3 3 3 3 2 2 2 2 3 3 3 4 4 4 4 4 4 5
2 1 1 2 1 1 1 1 1 2 2 1 2 2 2 2 2 3 3 3 3 3 4 4 4 4 4 3 3 3 3 3 3 2 2 3 3 4 4 4 4 5 6
1 1 1 1 1 1 1 1 1 2 2 2 2 2 2 2 4 3 3 4 4 4 4 4 5 5 4 4 4 3 4 3 1 1 3 3 2 2 3 4 2 3 6
1 1 1 2 2 2 4 6 4 2 2 3 2 2 3 5 5 6 5 5 4 3 4 4 5 5 5 4 3 3 3 4 5 1 2 2 1 2 2 2 4 6 6
2 2 2 2 2 2 6 6 8 1 2 2 3 4 3 3 5 5 7 6 6 7 4 3 4 4 4 3 3 3 3 3 4 3 2 3 1 2 0 1 6 7 7
3 2 2 2 2 2 7 9 9 2 2 3 3 3 3 4 4 5 5 4 4 4 4 2 3 3 2 2 2 2 3 3 2 3 3 5 2 2 1 1 6 7 7
2 3 2 2 2 2 9 10 10 3 3 3 2 2 3 3 8 9 3 4 4 5 8 7 7 8 8 7 3 1 3 3 4 4 2 3 3 2 1 2 3 6 7
2 2 2 2 3 2 7 11 9 2 3 3 5 4 8 5 11 10 3 3 4 5 4 4 4 5 5 5 7 1 2 3 4 4 2 3 4 2 4 2 1 4 5

GFSMA_con_lsi_072.txt.gz
Lid_Strength_Index
0 0 0 0 0 0 0 1 2 1 1 1 1 1 2 1 1 1 1 -2 -1 -2 -2 -2 -2 -2 -1 -1 -1 -1 -1 -1 -2 -2 -2 -1 -1 -1 -2 -2 -2 -2 -2
0 0 1 1 1 1 1 1 2 2 2 2 1 1 1 1 1 1 2 1 -1 -1 -2 -2 -2 -2 -2 -1 -1 -1 -1 -1 -1 -2 -2 -1 -1 -1 -1 -2 -2 -2 -2
0 0 0 1 1 1 1 2 2 2 2 2 2 2 1 1 1 1 2 2 1 -1 -1 -1 -1 -1 -1 -2 -1 -1 -1 -1 -1 -1 -1 -1 -1 -1 -1 -1 -1 -2 -1
0 0 0 0 1 1 2 2 2 2 2 2 3 2 2 1 1 1 2 2 2 1 -1 -1 -1 -1 -1 -1 -1 -1 -1 -1 -1 -1 -1 -2 -1 -1 -1 -1 -1 -1 -1
-0 0 0 0 1 1 2 1 2 2 3 2 2 2 2 1 1 1 2 2 2 2 2 -0 -1 -1 -1 -1 -2 -2 -1 -2 -1 -1 -2 -2 -2 -1 -1 -1 -1 -1 -1
-0 0 0 1 1 2 2 2 2 2 2 3 2 1 1 2 1 1 2 2 2 2 1 1 1 -0 -1 -1 -1 -2 -2 -2 -2 -1 -1 -1 -1 -1 -1 -1 -1 -1 -1
0 0 0 1 2 2 2 2 2 3 3 1 2 2 2 1 1 1 1 2 2 1 1 1 1 1 1 -1 -1 -1 -2 -2 -2 -2 -1 -1 -1 -1 -1 -1 -1 -1 -1
0 0 1 1 2 2 2 3 3 3 3 2 3 4 5 4 3 2 1 1 1 1 1 1 1 1 1 1 -0 -1 -1 -2 -2 -1 -1 -1 -1 -1 -1 -1 -1 -1 -1
1 1 1 1 1 2 1 2 3 4 3 2 2 3 6 7 4 3 2 1 2 2 1 1 2 1 1 1 0 -0 -1 -1 -2 -2 -1 -1 -1 -1 -1 -1 -1 -1 -1
1 0 0 0 1 2 2 2 2 2 3 3 2 1 2 4 6 6 3 2 1 1 1 2 1 1 1 1 -0 -0 0 -0 -1 -1 -2 -1 -1 -1 -1 -1 -1 -1 -1
1 0 0 0 1 1 1 1 2 2 2 2 2 3 3 3 3 5 6 4 2 2 1 1 1 1 1 1 1 1 1 1 0 -0 -1 -1 -1 -1 -1 -1 -1 -1 -1
1 1 1 1 1 1 1 1 2 2 2 1 2 2 3 4 5 6 6 5 4 3 1 1 2 2 2 1 1 0 1 2 1 1 1 0 -1 -1 -1 -1 -1 -1 -1
2 2 1 1 1 1 1 1 2 2 2 2 2 2 2 2 4 4 4 4 5 3 3 2 1 2 2 2 1 1 1 2 2 2 2 1 0 -0 -1 -1 -1 -1 -1
1 1 1 0 1 1 1 1 1 1 1 1 1 1 2 1 1 2 3 4 6 5 5 4 3 3 3 2 1 1 1 2 2 3 3 2 1 1 0 -0 -0 -0 -0
1 1 1 1 2 2 1 1 1 1 1 1 1 1 2 1 1 1 2 3 4 7 6 5 4 3 2 2 2 1 2 2 2 3 3 3 2 1 1 1 1 1 1
1 1 1 1 1 1 1 1 1 1 2 1 1 2 1 1 1 1 2 3 4 4 6 5 4 4 3 2 1 2 1 2 2 3 3 3 2 2 2 2 2 1 1
2 1 1 1 1 1 1 1 1 1 2 2 1 2 2 1 2 1 2 4 5 5 6 5 4 4 4 3 2 2 2 2 2 2 2 2 3 3 3 2 2 3 2
1 1 1 1 1 1 1 1 2 1 2 2 2 2 2 1 2 2 3 4 5 4 5 6 4 4 4 3 3 3 2 0 2 3 3 3 4 5 5 5 4 4 4
1 2 1 1 1 2 1 1 1 1 1 2 2 2 2 2 2 3 3 4 4 4 4 5 5 4 4 4 4 3 3 3 2 3 4 4 4 4 4 4 4 4 4
1 1 1 1 1 1 1 1 1 2 1 1 1 1 2 2 2 3 3 3 4 5 5 4 4 6 5 4 4 4 4 3 4 2 2 3 3 4 5 4 4 4 5
1 1 1 1 1 1 1 1 2 2 2 2 1 1 1 2 4 4 3 4 5 5 5 5 6 6 5 5 5 4 4 4 3 3 2 2 2 2 2 4 2 2 5
2 2 1 1 2 1 4 6 5 2 2 2 2 2 1 5 5 7 7 7 5 5 5 6 6 6 6 5 5 4 5 5 5 2 2 2 1 2 1 2 3 5 7
2 2 2 2 2 2 5 6 5 3 3 2 2 2 3 1 5 4 8 8 8 8 6 4 5 5 5 4 4 4 4 4 4 3 3 3 1 2 1 1 5 7 7
3 2 2 2 2 2 5 6 5 3 2 2 2 2 2 4 4 4 5 5 5 5 5 3 3 4 4 3 3 3 3 4 3 3 4 5 2 2 1 1 6 7 8
3 3 2 3 2 2 5 7 7 3 2 2 2 2 2 4 9 10 4 5 5 6 9 9 9 9 9 9 5 3 4 4 4 3 3 4 3 3 1 2 3 7 7
3 2 2 2 3 2 5 9 8 3 3 2 3 3 8 4 11 11 4 5 5 5 5 5 4 5 6 6 7 2 2 3 4 4 3 3 3 3 5 3 2 4 5

GFSMA_con_lsi_075.txt.gz
Lid_Strength_Index
0 0 0 0 0 0 0 0 2 2 1 1 1 1 1 2 2 1 2 -1 -2 -2 -1 -2 -1 -1 -2 -2 -1 -1 -1 -1 -2 -2 -2 -2 -1 -1 -1 -1 -2 -2 -2
1 0 0 0 1 0 1 1 2 3 3 2 2 2 2 2 2 2 2 2 -1 -1 -1 -2 -2 -1 -1 -1 -1 -1 -1 -1 -1 -1 -1 -2 -2 -1 -1 -1 -1 -2 -1
1 1 0 0 0 1 1 1 1 2 3 3 3 2 2 2 2 1 1 2 2 -1 -1 -1 -1 -1 -1 -2 -1 -1 -1 -1 -1 -1 -1 -1 -2 -2 -1 -1 -1 -1 -1
1 1 0 1 0 1 1 2 2 3 3 2 2 2 2 2 2 1 1 2 3 2 -1 -1 -1 -1 -1 -2 -2 -1 -1 -1 -1 -1 -1 -1 -2 -2 -1 -1 -1 -1 -1
0 1 0 0 0 0 1 2 2 3 3 3 3 3 3 2 2 1 1 1 2 3 2 -0 -1 -1 -1 -1 -1 -1 -1 -1 -1 -1 -1 -1 -1 -1 -2 -1 -1 -1 -1
0 0 0 0 0 1 2 2 2 3 2 3 3 2 2 1 1 1 1 0 1 2 2 2 1 -0 -1 -1 -1 -1 -1 -2 -2 -1 -1 -1 -1 -1 -1 -1 -1 -1 -1
0 0 0 0 0 1 1 2 3 3 3 2 3 3 2 1 1 1 1 1 1 1 2 2 2 2 1 -1 -1 -1 -1 -2 -2 -2 -1 -1 -1 -1 -1 -1 -1 -1 -1
0 0 1 1 1 2 3 3 3 4 3 2 4 4 5 4 2 1 2 2 2 0 1 1 2 2 2 2 1 -1 -1 -1 -2 -2 -1 -1 -1 -1 -1 -1 -1 -1 -1
0 0 0 0 1 1 2 2 3 3 4 3 3 3 6 7 4 3 2 2 1 1 1 1 2 1 1 2 1 0 -1 -1 -1 -2 -1 -1 -1 -1 -1 -1 -1 -1 -1
1 1 0 0 1 1 2 2 2 2 3 3 3 2 2 4 6 6 3 2 2 1 1 1 1 1 1 2 1 1 0 -0 -1 -1 -1 -1 -2 -1 -1 -1 -1 -1 -1
2 1 0 0 1 1 1 1 2 3 3 3 3 3 3 3 4 4 6 4 4 3 1 1 1 1 1 1 2 1 1 0 0 -0 -1 -1 -2 -2 -1 -1 -1 -1 -1
2 1 1 1 0 1 1 1 1 2 2 3 2 2 3 4 4 4 5 5 5 3 2 1 1 1 1 2 1 1 2 2 2 1 1 -0 -1 -1 -1 -1 -1 -1 -1
2 2 2 2 1 1 1 1 1 1 2 2 2 2 2 2 2 4 5 4 5 3 2 2 2 2 1 2 2 1 1 2 3 3 2 2 1 -0 -1 -1 -1 -1 -1
2 1 1 1 1 0 1 1 1 1 1 1 2 2 2 1 1 3 4 4 5 5 3 3 3 2 2 2 2 2 2 2 3 3 3 3 2 1 0 0 -0 -0 -0
1 1 1 1 1 1 1 2 2 2 2 1 1 1 2 1 1 1 2 3 4 6 6 4 4 3 3 3 2 2 2 2 2 3 3 3 3 2 2 1 1 1 1
2 2 2 1 1 1 1 2 1 1 1 1 2 2 1 1 1 1 2 2 2 4 6 4 4 4 3 2 2 3 2 2 3 3 3 3 3 3 2 2 2 2 1
2 2 2 1 1 1 1 1 1 1 2 1 1 2 2 1 2 1 1 2 2 3 4 3 5 4 4 4 3 3 2 2 3 3 2 3 3 3 3 3 3 2 2
1 1 1 1 1 1 1 2 2 1 2 2 2 2 2 1 2 2 2 2 3 4 3 4 5 4 4 4 4 3 2 1 2 3 4 4 5 5 5 5 5 4 5
2 1 1 1 1 1 1 1 1 1 2 1 2 2 2 2 2 2 2 2 3 3 4 5 5 5 5 4 4 4 4 4 2 2 4 4 4 4 4 4 4 4 5
2 2 1 1 1 1 1 1 1 1 1 1 1 1 1 2 2 2 2 3 4 4 4 5 6 6 5 5 5 5 5 5 4 2 3 3 4 3 4 4 3 3 4
3 3 3 2 1 1 1 1 1 2 2 2 1 1 1 1 3 3 2 3 4 4 5 6 6 7 6 6 5 5 5 5 4 4 2 2 2 2 2 4 2 2 4
5 4 4 4 4 3 4 3 2 2 2 2 2 2 1 3 3 7 7 7 4 4 5 5 6 6 6 6 6 5 6 6 5 3 3 3 1 2 1 1 3 4 5
5 5 4 3 2 2 4 5 5 3 2 2 2 2 2 1 3 1 7 9 8 8 6 4 6 6 6 5 5 6 6 5 5 4 4 4 1 2 1 2 4 5 6
5 5 4 3 3 1 4 6 6 3 2 2 2 2 2 2 2 2 3 4 4 5 5 4 4 4 4 4 4 4 4 4 4 4 4 5 4 3 1 1 5 6 7
6 5 4 3 3 3 5 6 6 2 2 3 2 1 1 2 7 11 4 4 5 6 8 10 9 9 10 9 5 3 5 4 4 3 3 4 4 3 2 2 3 6 7
5 4 4 4 3 2 4 8 8 3 3 2 2 2 7 5 11 11 3 4 5 6 5 5 5 7 7 8 8 3 3 4 4 4 2 4 3 3 4 2 2 4 4